When you browse on this site, cookies collect data to enhance your experience and personalize the content and advertising you see.
Visit our Privacy Policy to learn more. By continuing to use the site, you agree to this use of cookies and data.
  • En España
  • Lista de países
  • Para 7 días
  • Temperatura del agua
  • Mapa Satelital
  • El tiempo en el mapa
  • Informadores
  • user-avatar
    Iniciar sesión

    Tiempo cada hora Alcoi

    Hoy, 20 Enero, Domingo

    Tiempo Temperatura Precipitaciones Viento Presión Humedad
    00:00 +7°C° 0 mm 2 mps 709 mmHg 75%
    01:00 +7°C° 0.8 mm 2 mps 709 mmHg 78%
    02:00 +7°C° 0.8 mm 2 mps 708 mmHg 80%
    03:00 +7°C° 0.8 mm 2 mps 708 mmHg 83%
    04:00 +6°C° 0 mm 2 mps 708 mmHg 84%
    05:00 +5°C° 0 mm 3 mps 707 mmHg 86%
    06:00 +5°C° 0 mm 3 mps 707 mmHg 87%
    07:00 +7°C° 0 mm 3 mps 707 mmHg 83%
    08:00 +8°C° 0 mm 3 mps 707 mmHg 80%
    09:00 +8°C° 0 mm 4 mps 708 mmHg 76%
    10:00 +8°C° 0.4 mm 4 mps 708 mmHg 77%
    11:00 +8°C° 0.4 mm 4 mps 708 mmHg 78%
    12:00 +8°C° 0.4 mm 5 mps 708 mmHg 79%
    13:00 +8°C° 0.7 mm 4 mps 709 mmHg 75%
    14:00 +8°C° 0.7 mm 4 mps 709 mmHg 71%
    15:00 +8°C° 0.7 mm 4 mps 709 mmHg 67%
    16:00 +7°C° 0 mm 4 mps 709 mmHg 69%
    17:00 +6°C° 0 mm 4 mps 710 mmHg 71%
    18:00 +5°C° 0 mm 3 mps 710 mmHg 73%
    19:00 +5°C° 0 mm 4 mps 711 mmHg 71%
    20:00 +4°C° 0 mm 4 mps 711 mmHg 70%
    21:00 +4°C° 0 mm 4 mps 712 mmHg 68%
    22:00 +4°C° 0 mm 4 mps 712 mmHg 69%
    23:00 +3°C° 0 mm 4 mps 712 mmHg 70%

    Mañana, 21 Enero, Lunes

    Tiempo Temperatura Precipitaciones Viento Presión Humedad
    00:00 +3°C° 0 mm 3 mps 712 mmHg 70%
    01:00 +2°C° 0 mm 3 mps 713 mmHg 71%
    02:00 +2°C° 0 mm 3 mps 713 mmHg 71%
    03:00 +2°C° 0 mm 3 mps 713 mmHg 71%
    04:00 +1°C° 0 mm 3 mps 713 mmHg 72%
    05:00 +1°C° 0 mm 3 mps 713 mmHg 72%
    06:00 +1°C° 0 mm 3 mps 713 mmHg 73%
    07:00 +2°C° 0 mm 3 mps 714 mmHg 70%
    08:00 +3°C° 0 mm 3 mps 714 mmHg 66%
    09:00 +4°C° 0 mm 3 mps 715 mmHg 63%
    10:00 +5°C° 0 mm 3 mps 715 mmHg 58%
    11:00 +8°C° 0 mm 3 mps 715 mmHg 53%
    12:00 +9°C° 0 mm 3 mps 715 mmHg 47%
    13:00 +9°C° 0 mm 3 mps 715 mmHg 46%
    14:00 +9°C° 0 mm 3 mps 715 mmHg 45%
    15:00 +10°C° 0 mm 2 mps 715 mmHg 43%
    16:00 +8°C° 0 mm 2 mps 715 mmHg 49%
    17:00 +7°C° 0 mm 2 mps 715 mmHg 55%
    18:00 +5°C° 0 mm 2 mps 715 mmHg 61%
    19:00 +4°C° 0 mm 2 mps 715 mmHg 60%
    20:00 +4°C° 0 mm 2 mps 716 mmHg 59%
    21:00 +2°C° 0 mm 3 mps 716 mmHg 58%
    22:00 +1°C° 0 mm 3 mps 716 mmHg 60%
    23:00 +1°C° 0 mm 3 mps 716 mmHg 61%

    Pasado mañana, 22 Enero, Martes

    Tiempo Temperatura Precipitaciones Viento Presión Humedad
    00:00 +1°C° 0 mm 2 mps 716 mmHg 63%
    01:00 +1°C° 0 mm 2 mps 716 mmHg 63%
    02:00 +1°C° 0 mm 2 mps 715 mmHg 62%
    03:00 +1°C° 0 mm 2 mps 715 mmHg 62%
    04:00 0°C° 0 mm 3 mps 715 mmHg 62%
    05:00 -1°C° 0 mm 3 mps 715 mmHg 62%
    06:00 -1°C° 0 mm 3 mps 714 mmHg 61%
    07:00 0°C° 0 mm 4 mps 714 mmHg 60%
    08:00 +1°C° 0 mm 5 mps 715 mmHg 59%
    09:00 +3°C° 0 mm 7 mps 715 mmHg 58%
    10:00 +4°C° 0 mm 8 mps 714 mmHg 52%
    11:00 +6°C° 0 mm 8 mps 714 mmHg 47%
    12:00 +8°C° 0 mm 9 mps 713 mmHg 42%
    13:00 +8°C° 0.1 mm 9 mps 712 mmHg 42%
    14:00 +8°C° 0.1 mm 9 mps 711 mmHg 42%
    15:00 +8°C° 0.1 mm 9 mps 710 mmHg 43%
    16:00 +7°C° 0.4 mm 9 mps 710 mmHg 49%
    17:00 +6°C° 0.4 mm 8 mps 709 mmHg 55%
    18:00 +5°C° 0.4 mm 8 mps 709 mmHg 61%
    19:00 +5°C° 0.1 mm 9 mps 709 mmHg 63%
    20:00 +5°C° 0.1 mm 10 mps 709 mmHg 66%
    21:00 +5°C° 0.1 mm 10 mps 709 mmHg 68%
    22:00 +5°C° 0 mm 10 mps 709 mmHg 68%
    23:00 +3°C° 0 mm 10 mps 709 mmHg 67%

    23 Enero, Miércoles

    Tiempo Temperatura Precipitaciones Viento Presión Humedad
    00:00 +2°C° 0 mm 9 mps 708 mmHg 67%
    01:00 +2°C° 0 mm 10 mps 708 mmHg 67%
    02:00 +2°C° 0 mm 10 mps 708 mmHg 67%
    03:00 +1°C° 0 mm 10 mps 708 mmHg 67%
    04:00 +1°C° 0 mm 11 mps 708 mmHg 66%
    05:00 +1°C° 0 mm 11 mps 708 mmHg 65%
    06:00 0°C° 0 mm 12 mps 708 mmHg 65%
    07:00 +1°C° 0 mm 13 mps 708 mmHg 63%
    08:00 +1°C° 0 mm 13 mps 708 mmHg 61%
    09:00 +3°C° 0 mm 14 mps 708 mmHg 59%
    10:00 +4°C° 0 mm 15 mps 707 mmHg 55%
    11:00 +6°C° 0 mm 15 mps 707 mmHg 51%
    12:00 +7°C° 0 mm 16 mps 707 mmHg 47%
    13:00 +8°C° 0.1 mm 15 mps 706 mmHg 49%
    14:00 +9°C° 0.1 mm 15 mps 706 mmHg 50%
    15:00 +9°C° 0.1 mm 14 mps 705 mmHg 52%
    16:00 +8°C° 0 mm 11 mps 705 mmHg 52%
    17:00 +7°C° 0 mm 9 mps 705 mmHg 52%
    18:00 +6°C° 0 mm 7 mps 705 mmHg 52%
    19:00 +7°C° 0.1 mm 6 mps 706 mmHg 56%
    20:00 +6°C° 0.1 mm 5 mps 706 mmHg 61%
    21:00 +5°C° 0.1 mm 4 mps 706 mmHg 65%
    22:00 +5°C° 0.2 mm 3 mps 706 mmHg 68%
    23:00 +5°C° 0.2 mm 3 mps 706 mmHg 71%

    24 Enero, Jueves

    Tiempo Temperatura Precipitaciones Viento Presión Humedad
    00:00 +4°C° 0.2 mm 3 mps 706 mmHg 73%
    01:00 +4°C° 0 mm 4 mps 706 mmHg 73%
    02:00 +3°C° 0 mm 5 mps 706 mmHg 72%
    03:00 +3°C° 0 mm 7 mps 706 mmHg 71%
    04:00 +2°C° 0 mm 7 mps 707 mmHg 71%
    05:00 +2°C° 0 mm 7 mps 707 mmHg 71%
    06:00 0°C° 0 mm 7 mps 707 mmHg 70%
    07:00 +1°C° 0 mm 9 mps 708 mmHg 63%
    08:00 +1°C° 0 mm 10 mps 709 mmHg 56%
    09:00 +2°C° 0 mm 11 mps 709 mmHg 50%
    10:00 +3°C° 0 mm 10 mps 710 mmHg 42%
    11:00 +5°C° 0 mm 9 mps 710 mmHg 35%
    12:00 +6°C° 0 mm 9 mps 711 mmHg 28%
    13:00 +6°C° 0 mm 8 mps 710 mmHg 28%
    14:00 +7°C° 0 mm 8 mps 710 mmHg 27%
    15:00 +8°C° 0 mm 7 mps 710 mmHg 27%
    16:00 +5°C° 0 mm 6 mps 710 mmHg 34%
    17:00 +5°C° 0 mm 4 mps 710 mmHg 41%
    18:00 +3°C° 0 mm 3 mps 710 mmHg 48%
    19:00 +3°C° 0 mm 3 mps 710 mmHg 52%
    20:00 +4°C° 0 mm 4 mps 711 mmHg 56%
    21:00 +3°C° 0 mm 5 mps 711 mmHg 60%
    22:00 +3°C° 0.1 mm 5 mps 711 mmHg 61%
    23:00 +5°C° 0.1 mm 5 mps 711 mmHg 63%

    25 Enero, Viernes

    Tiempo Temperatura Precipitaciones Viento Presión Humedad
    00:00 +4°C° 0.1 mm 6 mps 711 mmHg 64%
    01:00 +5°C° 0.1 mm 7 mps 711 mmHg 66%
    02:00 +6°C° 0.1 mm 9 mps 710 mmHg 68%
    03:00 +7°C° 0.1 mm 10 mps 710 mmHg 70%
    04:00 +7°C° 0 mm 11 mps 710 mmHg 68%
    05:00 +7°C° 0 mm 11 mps 710 mmHg 67%
    06:00 +7°C° 0 mm 11 mps 709 mmHg 66%
    07:00 +8°C° 0 mm 11 mps 710 mmHg 64%
    08:00 +8°C° 0 mm 11 mps 711 mmHg 63%
    09:00 +9°C° 0 mm 11 mps 711 mmHg 61%
    10:00 +11°C° 0 mm 11 mps 712 mmHg 55%
    11:00 +12°C° 0 mm 11 mps 712 mmHg 49%
    12:00 +13°C° 0 mm 11 mps 713 mmHg 44%
    13:00 +12°C° 0 mm 10 mps 713 mmHg 43%
    14:00 +12°C° 0 mm 9 mps 713 mmHg 43%
    15:00 +12°C° 0 mm 7 mps 713 mmHg 42%
    16:00 +10°C° 0 mm 5 mps 713 mmHg 50%
    17:00 +9°C° 0 mm 3 mps 714 mmHg 59%
    18:00 +7°C° 0 mm 1 mps 714 mmHg 67%
    19:00 +7°C° 0 mm 1 mps 714 mmHg 68%
    20:00 +6°C° 0 mm 1 mps 715 mmHg 70%
    21:00 +6°C° 0 mm 1 mps 715 mmHg 71%
    22:00 +5°C° 0 mm 1 mps 716 mmHg 73%
    23:00 +5°C° 0 mm 1 mps 716 mmHg 75%
    Mostrar más